When you browse on this site, cookies collect data to enhance your experience and personalize the content and advertising you see.
Visit our Privacy Policy to learn more. By continuing to use the site, you agree to this use of cookies and data.

Hourly Weather Cham

Today, 10 July, Friday

Time Temperature Precipitation Wind Pressure Humidity
00:00 +21°C° 0 mm 1 mps 725 mmHg 67%
01:00 +20°C° 0 mm 2 mps 725 mmHg 64%
02:00 +21°C° 0 mm 1 mps 725 mmHg 64%
03:00 +20°C° 0 mm 1 mps 724 mmHg 64%
04:00 +20°C° 0 mm 1 mps 724 mmHg 64%
05:00 +21°C° 0 mm 1 mps 724 mmHg 64%
06:00 +23°C° 0 mm 1 mps 724 mmHg 63%
07:00 +25°C° 0 mm 1 mps 724 mmHg 63%
08:00 +26°C° 0 mm 2 mps 725 mmHg 59%
09:00 +27°C° 0 mm 2 mps 725 mmHg 54%
10:00 +29°C° 0 mm 3 mps 725 mmHg 50%
11:00 +29°C° 0.1 mm 3 mps 725 mmHg 49%
12:00 +30°C° 0.1 mm 3 mps 725 mmHg 48%
13:00 +32°C° 0.1 mm 4 mps 725 mmHg 48%
14:00 +29°C° 1.3 mm 4 mps 725 mmHg 57%
15:00 +28°C° 1.3 mm 3 mps 725 mmHg 65%
16:00 +26°C° 1.3 mm 3 mps 724 mmHg 74%
17:00 +25°C° 1.1 mm 3 mps 725 mmHg 78%
18:00 +24°C° 1.1 mm 2 mps 725 mmHg 83%
19:00 +23°C° 1.1 mm 2 mps 725 mmHg 87%
20:00 +22°C° 0.9 mm 1 mps 725 mmHg 90%
21:00 +21°C° 0.9 mm 1 mps 726 mmHg 92%
22:00 +20°C° 0.9 mm 1 mps 726 mmHg 95%
23:00 +19°C° 2.3 mm 1 mps 726 mmHg 96%

Tomorrow, 11 July, Saturday

Time Temperature Precipitation Wind Pressure Humidity
00:00 +19°C° 2.3 mm 1 mps 726 mmHg 96%
01:00 +19°C° 2.3 mm 1 mps 726 mmHg 97%
02:00 +18°C° 1.5 mm 1 mps 726 mmHg 97%
03:00 +18°C° 1.5 mm 1 mps 726 mmHg 97%
04:00 +16°C° 1.5 mm 1 mps 726 mmHg 97%
05:00 +16°C° 2.1 mm 1 mps 726 mmHg 97%
06:00 +15°C° 2.1 mm 0 mps 726 mmHg 97%
07:00 +15°C° 2.1 mm 0 mps 726 mmHg 97%
08:00 +15°C° 0.8 mm 0 mps 727 mmHg 94%
09:00 +16°C° 0.8 mm 0 mps 727 mmHg 91%
10:00 +17°C° 0.8 mm 0 mps 727 mmHg 88%
11:00 +21°C° 0.2 mm 1 mps 728 mmHg 80%
12:00 +22°C° 0.2 mm 1 mps 728 mmHg 71%
13:00 +24°C° 0.2 mm 1 mps 728 mmHg 62%
14:00 +24°C° 0.3 mm 1 mps 728 mmHg 64%
15:00 +23°C° 0.3 mm 2 mps 728 mmHg 65%
16:00 +23°C° 0.3 mm 2 mps 728 mmHg 66%
17:00 +21°C° 0.3 mm 2 mps 728 mmHg 73%
18:00 +20°C° 0.3 mm 2 mps 728 mmHg 79%
19:00 +20°C° 0.3 mm 1 mps 729 mmHg 86%
20:00 +18°C° 0 mm 1 mps 729 mmHg 88%
21:00 +16°C° 0 mm 1 mps 729 mmHg 90%
22:00 +14°C° 0 mm 1 mps 729 mmHg 91%
23:00 +14°C° 0 mm 1 mps 729 mmHg 92%

Day after tomorrow, 12 July, Sunday

Time Temperature Precipitation Wind Pressure Humidity
00:00 +13°C° 0 mm 1 mps 729 mmHg 92%
01:00 +13°C° 0 mm 1 mps 729 mmHg 93%
02:00 +12°C° 0 mm 1 mps 729 mmHg 93%
03:00 +12°C° 0 mm 1 mps 729 mmHg 93%
04:00 +11°C° 0 mm 1 mps 728 mmHg 93%
05:00 +13°C° 0 mm 1 mps 729 mmHg 91%
06:00 +14°C° 0 mm 1 mps 729 mmHg 89%
07:00 +15°C° 0 mm 1 mps 729 mmHg 87%
08:00 +18°C° 0 mm 1 mps 729 mmHg 77%
09:00 +19°C° 0 mm 2 mps 729 mmHg 68%
10:00 +21°C° 0 mm 3 mps 729 mmHg 58%
11:00 +22°C° 0 mm 3 mps 729 mmHg 55%
12:00 +24°C° 0 mm 3 mps 729 mmHg 52%
13:00 +25°C° 0 mm 3 mps 729 mmHg 48%
14:00 +25°C° 0 mm 3 mps 729 mmHg 50%
15:00 +25°C° 0 mm 3 mps 729 mmHg 51%
16:00 +25°C° 0 mm 3 mps 729 mmHg 53%
17:00 +24°C° 0 mm 3 mps 729 mmHg 59%
18:00 +22°C° 0 mm 3 mps 729 mmHg 66%
19:00 +20°C° 0 mm 2 mps 729 mmHg 72%
20:00 +19°C° 0 mm 2 mps 729 mmHg 77%
21:00 +17°C° 0 mm 2 mps 729 mmHg 82%
22:00 +16°C° 0 mm 1 mps 729 mmHg 87%
23:00 +15°C° 0 mm 1 mps 729 mmHg 88%

13 July, Monday

Time Temperature Precipitation Wind Pressure Humidity
00:00 +15°C° 0 mm 1 mps 729 mmHg 89%
01:00 +14°C° 0 mm 1 mps 728 mmHg 90%
02:00 +14°C° 0 mm 1 mps 728 mmHg 91%
03:00 +12°C° 0 mm 0 mps 728 mmHg 92%
04:00 +12°C° 0 mm 0 mps 728 mmHg 93%
05:00 +13°C° 0 mm 0 mps 728 mmHg 89%
06:00 +14°C° 0 mm 0 mps 728 mmHg 85%
07:00 +15°C° 0 mm 0 mps 728 mmHg 81%
08:00 +19°C° 0 mm 1 mps 728 mmHg 74%
09:00 +21°C° 0 mm 1 mps 728 mmHg 68%
10:00 +23°C° 0 mm 2 mps 728 mmHg 61%
11:00 +24°C° 0 mm 2 mps 728 mmHg 58%
12:00 +25°C° 0 mm 2 mps 728 mmHg 55%
13:00 +26°C° 0 mm 2 mps 727 mmHg 52%
14:00 +26°C° 0.1 mm 2 mps 727 mmHg 52%
15:00 +27°C° 0.1 mm 2 mps 727 mmHg 52%
16:00 +27°C° 0.1 mm 2 mps 726 mmHg 52%
17:00 +25°C° 0 mm 2 mps 726 mmHg 58%
18:00 +24°C° 0 mm 2 mps 726 mmHg 65%
19:00 +23°C° 0 mm 2 mps 726 mmHg 71%
20:00 +20°C° 0 mm 2 mps 726 mmHg 77%
21:00 +19°C° 0 mm 1 mps 726 mmHg 83%
22:00 +16°C° 0 mm 1 mps 726 mmHg 89%
23:00 +15°C° 0 mm 1 mps 726 mmHg 91%

14 July, Tuesday

Time Temperature Precipitation Wind Pressure Humidity
00:00 +15°C° 0 mm 1 mps 726 mmHg 92%
01:00 +14°C° 0 mm 1 mps 726 mmHg 93%
02:00 +13°C° 0 mm 0 mps 725 mmHg 93%
03:00 +13°C° 0 mm 0 mps 725 mmHg 93%
04:00 +12°C° 0 mm 0 mps 725 mmHg 93%
05:00 +14°C° 0 mm 0 mps 725 mmHg 90%
06:00 +15°C° 0 mm 0 mps 725 mmHg 87%
07:00 +16°C° 0 mm 0 mps 725 mmHg 84%
08:00 +18°C° 0 mm 0 mps 725 mmHg 77%
09:00 +22°C° 0 mm 1 mps 725 mmHg 71%
10:00 +24°C° 0 mm 1 mps 725 mmHg 65%
11:00 +24°C° 0.3 mm 1 mps 725 mmHg 63%
12:00 +25°C° 0.3 mm 1 mps 725 mmHg 62%
13:00 +26°C° 0.3 mm 1 mps 724 mmHg 60%
14:00 +26°C° 0.7 mm 1 mps 724 mmHg 62%
15:00 +25°C° 0.7 mm 1 mps 724 mmHg 64%
16:00 +25°C° 0.7 mm 1 mps 724 mmHg 65%
17:00 +24°C° 0.3 mm 1 mps 724 mmHg 71%
18:00 +23°C° 0.3 mm 1 mps 724 mmHg 77%
19:00 +20°C° 0.3 mm 0 mps 724 mmHg 83%
20:00 +20°C° 0.1 mm 1 mps 724 mmHg 85%
21:00 +19°C° 0.1 mm 1 mps 724 mmHg 87%
22:00 +16°C° 0.1 mm 1 mps 724 mmHg 89%
23:00 +16°C° 0 mm 1 mps 724 mmHg 89%

15 July, Wednesday

Time Temperature Precipitation Wind Pressure Humidity
00:00 +16°C° 0 mm 1 mps 724 mmHg 90%
01:00 +16°C° 0 mm 1 mps 724 mmHg 91%
02:00 +15°C° 0 mm 1 mps 724 mmHg 91%
03:00 +15°C° 0 mm 1 mps 724 mmHg 92%
04:00 +14°C° 0 mm 0 mps 724 mmHg 92%
05:00 +15°C° 0 mm 0 mps 724 mmHg 92%
06:00 +16°C° 0 mm 0 mps 725 mmHg 91%
07:00 +16°C° 0 mm 0 mps 725 mmHg 90%
08:00 +20°C° 0.3 mm 1 mps 725 mmHg 83%
09:00 +21°C° 0.3 mm 1 mps 725 mmHg 77%
10:00 +21°C° 0.3 mm 2 mps 725 mmHg 70%
11:00 +23°C° 0.3 mm 2 mps 725 mmHg 65%
12:00 +24°C° 0.3 mm 2 mps 725 mmHg 60%
13:00 +25°C° 0.3 mm 2 mps 725 mmHg 54%
14:00 +25°C° 0.2 mm 2 mps 725 mmHg 54%
15:00 +25°C° 0.2 mm 3 mps 725 mmHg 54%
16:00 +25°C° 0.2 mm 3 mps 725 mmHg 54%
17:00 +24°C° 0.1 mm 2 mps 726 mmHg 60%
18:00 +23°C° 0.1 mm 2 mps 726 mmHg 66%
19:00 +22°C° 0.1 mm 1 mps 726 mmHg 72%
20:00 +21°C° 0.1 mm 1 mps 726 mmHg 78%
21:00 +19°C° 0.1 mm 1 mps 727 mmHg 83%
22:00 +15°C° 0.1 mm 0 mps 727 mmHg 88%
23:00 +16°C° 0 mm 1 mps 727 mmHg 88%
Show more